ACA8559 KLAX-CYVR

Flight info

Callsign ACA8559
Flight time N/A
Altitude 40000
Route SUMMR2 SCTRR DCT SNS DCT RBL DCT PAE GRIZZ9
Aircraft B77L/H-SDE1E2E3FGHIJ2J3J4J5M1RWXY/LB1D1

Departure

Time 2026-04-21 04:39
Airport Los Angeles International Airport (KLAX)

Arrival

Time N/A
Airport Vancouver International Airport (CYVR)
Time Latitude Longitude Altitude Speed Heading
2026-04-21 04:17 33.94400 -118.41132 125 ft 0 kts 84°
2026-04-21 04:29 33.94400 -118.41133 130 ft 1 kts 84°
2026-04-21 04:29 33.94397 -118.41161 126 ft 4 kts 83°
2026-04-21 04:29 33.94397 -118.41167 125 ft 4 kts 83°
2026-04-21 04:30 33.94396 -118.41171 125 ft 4 kts 83°
2026-04-21 04:30 33.94393 -118.41202 125 ft 2 kts 83°
2026-04-21 04:30 33.94388 -118.41228 125 ft 4 kts 41°
2026-04-21 04:30 33.94366 -118.41235 126 ft 4 kts 350°
2026-04-21 04:31 33.94353 -118.41232 126 ft 0 kts 353°
2026-04-21 04:33 33.94354 -118.41232 125 ft 0 kts 353°
2026-04-21 04:33 33.94408 -118.41241 125 ft 21 kts 352°
2026-04-21 04:33 33.94578 -118.41269 127 ft 20 kts 352°
2026-04-21 04:34 33.94635 -118.41279 127 ft 0 kts 353°
2026-04-21 04:35 33.94641 -118.41280 130 ft 5 kts 353°
2026-04-21 04:35 33.94697 -118.41287 127 ft 10 kts 354°
2026-04-21 04:35 33.94795 -118.41241 126 ft 18 kts 69°
2026-04-21 04:35 33.94817 -118.41070 126 ft 23 kts 82°
2026-04-21 04:36 33.94840 -118.40855 130 ft 28 kts 83°
2026-04-21 04:36 33.94864 -118.40602 126 ft 31 kts 84°
2026-04-21 04:36 33.94891 -118.40341 126 ft 31 kts 82°
2026-04-21 04:36 33.94915 -118.40125 127 ft 25 kts 83°
2026-04-21 04:37 33.94940 -118.39953 127 ft 10 kts 60°
2026-04-21 04:37 33.94985 -118.39923 127 ft 8 kts
2026-04-21 04:37 33.95032 -118.39947 127 ft 7 kts 301°
2026-04-21 04:37 33.95033 -118.39976 125 ft 0 kts 259°
2026-04-21 04:38 33.95032 -118.40028 130 ft 8 kts 265°
2026-04-21 04:38 33.95031 -118.40032 130 ft 0 kts 264°
2026-04-21 04:38 33.95027 -118.40076 130 ft 27 kts 264°
2026-04-21 04:38 33.94964 -118.40685 128 ft 116 kts 262°
2026-04-21 04:39 33.94826 -118.41932 177 ft 177 kts 262°
2026-04-21 04:39 33.94722 -118.42941 488 ft 190 kts 262°
2026-04-21 04:39 33.94541 -118.44577 1205 ft 203 kts 263°
2026-04-21 04:39 33.94385 -118.46268 2218 ft 203 kts 265°
2026-04-21 04:40 33.94260 -118.47974 3116 ft 211 kts 266°
2026-04-21 04:40 33.94187 -118.49836 3640 ft 236 kts 268°
2026-04-21 04:40 33.94113 -118.51871 4449 ft 249 kts 265°
2026-04-21 04:40 33.93970 -118.53970 5423 ft 254 kts 262°
2026-04-21 04:41 33.93798 -118.56191 5305 ft 270 kts 263°
2026-04-21 04:41 33.93632 -118.58406 5196 ft 261 kts 263°
2026-04-21 04:41 33.93467 -118.60553 5267 ft 258 kts 263°
2026-04-21 04:41 33.93296 -118.62733 5814 ft 267 kts 263°
2026-04-21 04:42 33.93119 -118.64983 6767 ft 271 kts 262°
2026-04-21 04:42 33.92944 -118.67246 7868 ft 272 kts 261°
2026-04-21 04:42 33.92768 -118.69520 8869 ft 274 kts 261°
2026-04-21 04:42 33.92589 -118.71815 9677 ft 278 kts 260°
2026-04-21 04:43 33.92407 -118.74160 10513 ft 283 kts 260°
2026-04-21 04:43 33.92222 -118.76529 11391 ft 289 kts 260°
2026-04-21 04:43 33.92022 -118.79030 11945 ft 315 kts 260°
2026-04-21 04:43 33.91799 -118.81787 12007 ft 344 kts 261°
2026-04-21 04:44 33.91689 -118.84682 12114 ft 350 kts 268°
2026-04-21 04:44 33.91817 -118.87633 13192 ft 355 kts 268°
2026-04-21 04:44 33.91918 -118.90577 14387 ft 358 kts 268°
2026-04-21 04:44 33.92007 -118.93589 15444 ft 363 kts 267°
2026-04-21 04:45 33.92093 -118.96653 16443 ft 369 kts 267°
2026-04-21 04:45 33.92337 -118.99801 17357 ft 382 kts 276°
2026-04-21 04:45 33.93082 -119.02882 18305 ft 394 kts 285°
2026-04-21 04:45 33.94311 -119.05927 19206 ft 405 kts 296°
2026-04-21 04:46 33.95850 -119.08794 20120 ft 409 kts 298°
2026-04-21 04:46 33.97379 -119.11647 21028 ft 412 kts 297°
2026-04-21 04:46 33.98938 -119.14623 21917 ft 417 kts 298°
2026-04-21 04:46 34.00675 -119.17462 22790 ft 426 kts 306°
2026-04-21 04:47 34.02755 -119.20053 23676 ft 434 kts 313°
2026-04-21 04:47 34.05131 -119.22361 24390 ft 443 kts 320°
2026-04-21 04:47 34.07787 -119.24630 25202 ft 446 kts 321°
2026-04-21 04:47 34.69406 -119.79354 36234 ft 498 kts 317°
2026-04-21 04:48 35.41165 -120.47749 39622 ft 503 kts 316°
2026-04-21 04:48 36.09194 -121.08155 41209 ft 502 kts 317°
2026-04-21 04:48 36.49922 -121.45453 41838 ft 516 kts 318°
2026-04-21 04:48 36.52834 -121.47966 41587 ft 503 kts 317°